Location: ??????
(41.3164°N, 22.6615°E)
Time: 13:45:59
(UTC+00:00)

H-2A R/B - Pass Details

Date: 25 May 2022
Orbit: 576 x 653 km, 98.5° (Epoch: 30 June)

Event Time Altitude Azimuth Distance (km) Brightness Sun altitude
Rises 18:49:39 0° 10° (N) 2,798 5.9 -10.0°
Reaches altitude 10° 18:51:49 10° 8° (N) 1,895 5.0 -10.3°
Maximum altitude 18:55:52 66° 286° (WNW) 634 2.4 -10.9°
Drops below altitude 10° 18:59:56 10° 204° (SSW) 1,893 4.4 -11.4°
Sets 19:02:05 0° 202° (SSW) 2,796 5.2 -11.7°
